Погода в Большеречье

Россия / Омская область     56°05′54″N   74°37′21″E
темп.,
°C
ветер,
м/с
пор.,
м/с
влажн.,
%
обл.,
%
осадки,
мм/ч
давл.,
гПа
погр.,
м
11 мая, вт
вт1100:00+10ссв35565 0.0 102366
03:00+8ссв35665 0.0 102367
06:00+7ссв410740 0.0 1024211
09:00+12ссв68490 0.0 1025917
12:00+16ссв57340 0.0 10241735
15:00+18с57280 0.0 10242050
18:00+18ссв46280 0.0 10241973
21:00+13ссв22410 0.0 102511
12 мая, ср
ср1200:00+11ссв11423 0.0 102510
03:00+9юз2245100 0.0 102410
06:00+9зюз225220 0.0 102430
09:00+16зюз3541100 0.0 1022358
12:00+19зсз5739100 0.0 1021907
15:00+19зсз6947100 0.0 10191815
18:00+16сз7946100 0.1 10201202
21:00+13ссз41150100 0.0 1021267
13 мая, чт
чт1300:00+10сз41057100 0.0 1021210
03:00+8ссз3857100 0.0 1021139
06:00+8ссз345999 0.0 102170
09:00+11ссз2447100 0.0 1021249
12:00+15зсз344551 0.0 10201139
15:00+17зсз565494 0.0 10191367
18:00+17сз676156 0.1 10191127
21:00+13сз388579 0.0 1020190
14 мая, пт
пт1400:00+11ссз4118828 0.0 1021259
03:00+9с511900 0.0 1023374
06:00+7с610760 0.0 1026564
09:00+10ссв68500 0.0 1027867
12:00+13с67351 0.0 10281309
15:00+16ссз463150 0.0 10271557
18:00+17зсз45335 0.0 10261511
21:00+13зюз335123 0.0 102636
15 мая, сб
сб1500:00+11юз495432 0.0 1025136
03:00+10юз513534 0.0 1023227
06:00+11зюз515545 0.0 1022289
09:00+17зюз611535 0.1 1021401
12:00+24зсз574345 0.3 10191062
15:00+27зсз5935100 0.0 10183180
18:00+25зсз4739100 0.0 10152037
21:00